Location: Malanoce
(44.2500°N, 7.4667°E)
Time: 21:08:06
(UTC+00:00)

SJ-6F - Pass Details

Date: 17 November 2025
Orbit: 543 x 570 km, 97.9° (Epoch: 11 December)

Event Time Altitude Azimuth Distance (km) Brightness Sun altitude
Rises 17:00:42 0° 155° (SSE) 2,693 7.8 -10.7°
Reaches altitude 10° 17:02:49 10° 151° (SSE) 1,805 6.8 -11.1°
Maximum altitude 17:06:38 56° 74° (ENE) 652 4.3 -11.8°
Drops below altitude 10° 17:10:30 10° 355° (N) 1,822 6.9 -12.4°
Sets 17:12:39 0° 352° (N) 2,722 7.8 -12.8°
